Zurück zum Katalog

SL-12 DEB

AktivHEO
NORAD 23292·DEBRIS·🇷🇺 Russia

Gestartet Dec 24, 1985 von Baikonur Cosmodrome

Loading…

Nächste Überflüge (nächste 24 Stunden)

TLE

AktuellSource: Space-Track

Epoche: Sep 14, 2026, 00:50 UTC

1 23292U 85118P   26257.03540412  .00000036  00000-0  19945-3 0  9992
2 23292  65.3754 273.8610 5493217 284.1884  23.1124  4.52205468544522

Verfolge SL-12 DEB in Echtzeit mit AllMySat

Download on the App Store